Theta_e
318 307 310 308 309 311 317 308 316 314 317 315 308 314 316 317 313 320 319 318 318 319 320 321 321 322 321 321 318 317 316 316 322 324 320 317 320 322 319 325 329 335 337 343
317 307 310 308 309 314 314 311 310 315 315 318 314 311 317 311 313 312 317 319 318 317 319 319 320 321 320 320 317 314 315 315 321 323 321 317 318 318 316 315 328 339 335 339
316 307 310 308 310 317 313 312 314 310 307 306 312 317 315 312 313 313 312 315 315 317 318 317 320 320 318 317 316 324 316 315 320 323 320 316 319 318 318 317 328 336 336 347
315 307 310 309 311 316 315 311 316 312 316 312 310 311 312 314 314 312 311 314 315 317 319 318 320 319 317 314 317 314 312 319 320 321 319 319 319 317 318 318 322 329 336 343
316 307 310 309 311 316 316 315 315 313 314 313 311 308 312 312 312 314 315 313 313 313 318 319 319 318 316 318 315 315 310 318 319 323 323 321 318 317 321 340 341 341 341 344
317 307 310 310 311 316 316 317 316 313 313 308 309 310 313 313 314 314 314 314 313 313 313 312 313 314 311 310 315 316 315 316 318 321 319 321 323 318 318 326 340 341 342 338
317 307 310 311 311 313 316 318 316 312 315 310 311 312 310 310 311 314 313 312 312 312 307 309 307 306 312 309 307 310 315 315 315 319 322 327 320 317 334 339 339 336 336 337
316 307 310 311 311 313 318 319 314 313 315 315 316 314 313 312 310 312 313 312 310 304 305 308 308 308 312 313 307 307 309 312 314 317 321 319 320 318 320 326 334 336 337 336
315 307 309 311 311 315 318 319 318 313 311 314 314 314 313 312 310 310 313 311 307 304 304 308 312 310 310 315 314 308 307 307 313 314 319 319 317 319 321 326 324 335 336 335
314 307 308 311 311 315 319 319 318 313 312 312 313 314 314 310 310 311 310 312 314 306 304 307 309 313 317 313 314 315 308 309 310 314 315 317 317 320 320 321 320 333 334 333
314 308 307 310 311 316 319 319 319 315 311 312 313 314 314 312 308 312 309 312 312 310 313 314 314 314 315 313 315 318 311 310 310 309 314 320 316 320 321 317 322 330 331 330
314 308 307 309 310 316 318 319 319 317 312 313 315 316 315 314 313 308 308 311 312 313 312 312 313 317 314 313 314 314 316 312 316 311 312 312 314 318 320 320 323 326 325 321
314 308 306 308 310 313 318 319 319 316 311 313 314 316 317 317 317 314 313 310 311 310 309 310 311 314 310 314 315 318 315 311 316 317 317 317 314 317 318 318 320 320 320 320
314 307 306 307 310 311 318 318 318 319 310 314 315 317 316 316 316 317 315 311 310 307 305 307 309 313 309 312 311 313 313 314 313 314 315 314 314 314 316 317 318 319 319 320
314 307 306 307 310 312 318 317 316 320 315 314 313 313 314 314 315 314 315 313 309 308 312 312 314 308 310 308 309 311 311 313 315 317 313 312 313 312 314 317 317 317 317 316
314 306 306 308 311 317 320 313 318 317 319 312 316 311 314 314 314 313 311 309 307 307 310 309 308 306 308 310 312 310 310 311 310 313 313 311 313 312 311 313 315 314 315 316
309 306 307 310 314 319 319 315 317 316 321 312 315 314 312 314 313 311 308 308 305 306 305 307 307 306 305 307 307 311 312 312 314 313 313 315 313 313 311 311 312 313 312 313
306 308 311 313 316 318 319 316 315 320 319 311 314 315 314 314 313 313 306 309 305 304 305 304 306 304 302 306 307 309 310 311 313 313 311 310 311 312 312 311 311 309 308 309
309 312 314 317 319 319 317 315 314 317 318 317 313 316 317 310 308 308 308 305 310 304 308 308 306 307 304 305 304 307 308 312 313 312 312 312 312 311 312 312 310 310 310 308
313 317 319 318 317 314 313 316 312 313 313 312 317 310 316 310 309 310 310 305 307 306 307 306 308 307 306 304 301 305 307 309 309 312 312 311 312 311 311 311 310 309 310 310
318 318 315 317 314 317 314 317 315 315 320 313 313 311 314 309 314 312 307 308 306 309 308 311 306 308 308 308 306 302 305 308 309 309 309 309 309 309 310 310 312 311 311 311
313 315 317 318 314 313 319 318 316 318 319 312 314 312 310 309 306 311 309 311 308 312 308 312 308 308 306 308 309 305 304 308 310 310 310 310 311 311 310 309 310 312 312 312
319 317 317 314 314 315 321 322 321 318 314 312 311 314 310 308 306 308 309 313 311 308 313 310 309 307 307 307 309 309 306 307 310 311 311 311 311 311 312 310 310 311 312 312
317 318 313 316 319 318 318 318 318 316 313 312 310 311 312 308 311 308 313 310 309 312 311 313 310 308 309 308 310 310 311 310 311 311 311 311 311 311 311 311 311 311 311 311
320 319 320 319 316 315 316 316 317 315 311 311 313 311 311 312 314 312 312 316 318 314 313 310 308 308 308 310 309 309 310 308 306 307 307 309 309 308 307 307 307 307 308 308
318 319 321 318 320 320 319 319 318 312 310 309 311 314 316 317 314 317 316 317 318 315 311 309 311 310 309 308 308 308 306 305 305 305 306 306 306 305 305 306 306 306 306 306
318 317 313 315 316 318 317 317 319 310 312 315 314 318 318 313 315 317 314 316 312 310 312 314 311 313 310 308 309 306 304 304 304 304 304 304 305 305 305 304 305 305 305 305
Wind_Speed
22 26 28 28 31 37 9 2 3 7 8 4 1 0 3 3 4 2 3 4 3 2 3 3 1 4 3 3 3 1 1 5 1 4 3 3 2 2 4 5 4 2 3 3
22 25 27 27 31 29 5 2 1 4 2 3 2 4 2 4 6 4 2 3 3 2 3 3 1 2 2 4 2 5 4 2 3 8 6 5 5 4 3 2 3 5 6 4
21 24 26 27 31 19 3 2 3 4 3 1 3 3 0 4 5 4 4 4 3 3 5 2 1 2 2 1 3 9 6 2 5 5 4 3 5 6 2 4 3 5 4 8
19 22 24 25 29 16 4 3 0 3 2 3 3 3 0 4 3 4 8 6 6 1 3 5 3 3 3 4 2 4 4 3 2 3 3 2 1 6 8 5 3 5 7 10
18 20 22 23 27 16 4 2 3 3 1 1 2 3 4 4 2 3 3 6 3 6 4 1 3 3 4 2 5 3 3 0 0 1 1 5 3 6 7 5 3 3 8 1
16 18 19 21 23 14 6 4 3 3 5 3 4 1 2 2 2 6 3 1 3 4 2 3 3 2 3 1 2 2 3 4 3 3 4 3 4 5 5 4 1 5 5 5
15 14 16 17 19 21 5 3 1 3 3 3 2 3 4 4 3 6 2 3 3 2 5 0 3 6 5 8 7 3 5 4 3 2 2 2 6 2 8 4 4 5 3 7
12 12 13 13 15 16 5 6 1 3 3 1 6 7 4 3 5 4 3 4 2 3 6 4 5 5 3 5 6 7 4 5 3 3 1 4 6 5 2 4 4 3 6 9
11 9 10 11 13 14 3 12 5 3 5 4 3 3 4 3 3 5 3 4 4 6 4 4 2 4 3 2 4 5 5 7 4 2 3 5 4 3 3 4 6 4 7 10
9 6 8 8 11 10 5 7 8 3 4 3 2 3 2 3 3 1 4 6 6 4 3 3 2 2 2 1 3 1 4 4 4 2 2 5 4 8 5 4 5 3 8 13
7 4 6 6 8 9 4 5 11 3 4 4 4 3 3 2 2 2 3 3 4 4 4 2 2 1 2 3 2 2 4 5 2 2 2 3 5 6 1 4 2 4 4 3
5 3 3 4 6 7 3 3 7 8 6 4 4 11 9 3 3 5 2 4 3 4 4 1 2 0 1 3 2 2 0 5 4 6 5 4 5 4 4 2 2 1 6 5
5 3 2 3 3 7 4 4 6 5 4 4 5 3 10 10 7 1 3 2 3 2 3 4 2 2 3 2 4 1 1 2 2 3 2 2 5 5 6 4 1 5 7 10
5 4 2 1 3 4 6 6 6 5 5 4 4 5 4 6 6 7 3 7 6 7 3 3 2 2 2 2 2 2 4 2 3 2 4 1 0 2 3 3 5 11 8 9
6 4 2 0 2 2 6 10 11 6 4 4 2 4 4 9 10 15 12 9 4 3 3 3 1 1 2 1 1 2 2 4 4 5 4 3 3 6 2 2 2 7 10 7
6 3 2 2 2 2 3 4 2 6 3 4 1 3 1 3 12 17 14 9 4 3 3 2 1 1 2 2 2 4 3 2 4 1 1 0 2 4 4 1 2 4 7 15
5 3 3 3 4 3 2 4 1 1 3 3 2 2 3 1 3 4 3 7 3 3 2 2 2 1 2 2 3 4 5 3 4 3 4 2 3 2 5 6 2 5 3 6
4 5 4 4 4 4 3 2 1 2 5 4 3 2 3 1 1 1 3 2 3 4 2 1 2 2 2 2 6 3 2 2 2 4 3 3 2 2 1 4 4 2 4 6
6 6 5 3 2 1 2 4 1 1 1 3 2 4 4 2 1 1 3 2 3 1 2 1 3 0 3 7 7 5 7 5 4 3 1 3 2 3 3 2 3 4 0 2
6 2 1 2 2 3 3 1 2 4 4 3 2 1 2 3 1 1 2 2 1 1 2 2 1 4 5 7 8 6 8 8 6 5 2 3 2 2 1 2 1 1 1 1
1 1 1 1 3 2 3 1 2 1 1 1 2 4 3 1 3 3 0 2 0 2 3 2 2 3 5 5 8 8 7 9 8 5 3 4 5 4 3 2 3 2 4 4
2 3 2 2 3 3 2 1 1 2 4 2 4 4 3 1 3 3 0 2 1 3 2 1 3 4 6 5 7 7 10 10 7 11 7 7 8 8 5 4 4 4 3 4
2 2 2 3 1 3 5 5 3 2 3 4 3 2 3 2 3 3 2 2 4 1 1 3 5 4 4 7 5 6 10 12 7 8 11 9 9 7 10 9 6 5 6 6
2 2 3 4 3 4 5 4 4 4 3 4 3 3 2 1 3 2 3 3 3 1 2 5 3 4 6 4 4 5 8 8 8 8 9 7 8 6 7 8 6 7 10 9
2 3 3 5 4 3 4 4 2 2 3 4 4 3 3 1 3 1 2 2 4 5 5 4 4 5 5 2 3 5 6 6 6 7 8 8 7 6 4 2 2 4 5 7
2 3 2 3 0 3 2 3 4 3 4 3 3 3 3 3 3 3 6 3 6 4 3 3 2 3 1 5 4 7 12 12 12 12 11 9 5 2 0 2 5 7 9 11
3 4 3 3 3 4 4 3 2 8 4 3 3 5 7 3 3 3 5 5 4 3 2 3 4 7 6 5 6 11 16 14 14 12 9 6 4 1 1 4 5 6 6 8
Wind_Direction
351 351 351 350 347 344 350 48 66 3 150 54 0 151 212 315 29 5 58 91 97 72 38 74 131 177 187 206 161 28 339 129 320 251 309 247 320 103 124 137 210 107 151 245
350 352 353 351 350 348 346 78 187 29 1 132 280 287 322 70 31 22 48 73 55 73 87 41 0 214 262 231 133 161 190 13 37 346 357 8 43 321 125 125 91 189 136 244
351 352 353 354 353 0 73 84 70 344 56 109 154 150 40 97 19 65 48 49 81 87 49 52 243 343 47 281 65 70 72 95 147 184 202 196 329 333 342 117 114 167 204 156
350 353 354 356 357 2 14 25 129 184 339 357 42 70 348 88 24 38 29 27 29 100 65 359 345 342 345 43 30 57 88 120 140 165 218 234 162 325 328 199 182 158 195 180
350 354 355 357 5 3 34 89 104 3 105 298 139 337 11 115 140 51 1 101 42 56 93 190 312 18 17 297 16 70 29 105 99 216 306 271 110 3 25 55 83 41 129 148
349 354 355 0 7 18 33 12 35 98 313 7 77 308 111 105 74 32 59 56 102 51 346 215 242 186 141 80 12 100 72 115 44 259 326 323 6 2 356 279 215 143 169 223
344 351 354 2 6 12 25 10 17 76 348 65 27 51 77 66 24 125 28 24 63 343 324 8 58 40 67 56 25 358 124 83 90 213 337 138 234 121 99 103 7 339 290 154
337 346 351 0 4 6 27 13 52 102 74 314 29 37 64 64 41 60 74 4 332 327 40 47 30 350 20 30 36 21 44 117 84 127 201 288 317 31 31 106 291 280 147 131
330 339 346 356 3 7 20 22 19 93 112 345 274 61 24 73 13 2 2 354 354 59 68 58 109 207 239 315 7 81 57 65 106 97 126 204 261 305 290 153 318 162 160 142
319 330 341 352 5 11 36 24 21 84 101 337 48 78 110 114 91 123 316 341 9 47 60 71 140 256 213 135 147 342 18 13 123 123 208 290 288 304 305 119 241 148 179 161
300 315 334 348 8 13 17 35 23 85 98 330 7 31 90 69 72 108 278 38 358 40 65 113 204 162 248 68 256 152 162 129 168 86 96 265 357 320 212 226 202 151 134 147
281 283 317 340 7 21 17 42 31 71 91 175 56 60 48 35 196 138 1 166 182 181 92 101 122 202 41 157 226 337 110 180 184 166 211 252 283 246 287 272 38 50 120 101
267 251 299 328 18 27 62 50 39 85 80 15 43 1 16 47 18 279 122 281 160 132 158 152 146 129 129 180 251 177 280 127 127 98 265 315 331 323 337 350 124 122 115 123
246 227 248 293 25 30 58 65 43 74 101 107 280 359 16 355 34 56 85 135 101 106 82 93 115 138 169 204 222 176 205 122 146 303 279 276 296 2 345 34 96 106 112 136
238 213 234 162 73 37 101 80 54 72 121 162 225 319 32 54 70 61 63 96 88 66 63 65 144 125 108 328 89 268 192 171 150 217 225 153 253 320 320 144 147 140 132 127
212 199 257 144 124 155 159 31 35 47 100 98 144 301 287 65 64 56 41 42 61 73 103 123 104 121 113 115 209 253 204 195 182 274 179 195 72 39 11 69 187 199 169 163
192 194 184 144 127 153 142 169 102 359 122 90 55 327 289 247 33 41 32 42 68 87 95 63 126 17 64 119 203 236 189 184 167 194 145 85 39 27 11 32 355 214 226 217
182 157 153 136 140 141 121 84 128 142 105 74 119 265 2 95 20 36 358 59 37 14 135 60 108 17 30 270 240 255 250 318 238 203 142 164 161 161 59 39 56 90 182 193
152 144 143 136 120 102 105 133 104 65 160 133 109 147 230 35 53 79 32 53 61 304 96 215 97 294 245 230 220 198 205 186 207 177 60 51 13 341 344 52 76 100 172 205
134 146 216 33 73 128 132 130 34 21 346 42 163 119 201 110 50 20 76 23 105 60 265 110 124 256 244 233 215 215 192 194 144 132 215 178 192 211 279 278 327 215 38 15
133 78 157 98 118 154 38 75 114 305 296 185 212 177 157 257 129 185 74 157 47 57 264 123 284 279 249 219 198 202 203 192 203 187 152 195 169 176 194 250 266 257 225 217
127 123 107 82 53 41 114 206 327 184 221 203 161 201 173 162 109 103 27 110 53 247 147 64 279 253 239 201 212 205 198 193 192 200 211 217 209 190 192 203 219 236 261 237
85 68 61 64 319 55 195 191 241 240 198 184 167 120 129 74 63 72 107 117 227 87 81 230 229 246 238 216 205 210 199 197 203 211 215 218 236 219 205 210 221 237 232 226
92 126 309 166 212 237 202 192 195 234 149 141 120 100 135 152 84 135 127 221 116 223 225 234 252 248 274 244 183 156 181 183 194 201 205 205 216 221 231 230 232 223 231 237
146 121 229 220 228 248 237 229 310 239 138 131 98 67 97 54 108 186 115 167 245 210 227 227 253 294 291 225 181 145 136 144 131 144 134 132 130 117 86 47 328 292 276 265
161 223 256 227 186 271 225 224 253 162 140 102 73 120 113 196 151 145 215 194 221 242 212 224 163 66 95 98 145 139 136 121 131 133 128 122 127 119 123 309 304 294 286 281
226 249 227 200 262 235 235 215 232 147 121 167 135 166 201 124 172 223 190 209 224 206 186 192 205 145 155 154 147 118 117 141 149 139 141 136 132 130 299 295 302 306 290 285